ECMWFNIL_con_mucape_069.txt.gz
CAPE
964 1048 1019 615 413 282 784 782 644 556 578 623 594 644 530 610 553 363 411 482 416 370 422 459 506 604 501 548 526 389 968 1215 1184 1172 1419 900 1172 1320 1089 1179 1251 1316
875 905 608 488 309 578 924 821 580 562 667 621 617 498 559 631 514 537 405 400 350 378 359 414 454 508 516 348 627 388 317 1335 1381 440 1532 1324 886 1146 808 822 1181 1026
812 710 512 427 700 799 780 760 645 542 603 637 684 571 599 590 551 462 486 329 330 333 333 334 544 554 448 417 553 434 353 698 417 570 1395 1299 1237 1314 1076 1319 1297 1238
954 985 771 774 906 775 755 631 544 578 573 596 646 579 490 497 522 488 485 245 236 233 266 421 442 340 234 368 470 321 392 418 369 567 863 1453 1433 1271 1290 1293 1065 941
1323 1062 767 528 499 599 671 588 576 535 618 612 632 579 396 488 535 426 434 265 160 206 187 284 224 259 212 242 260 365 492 424 568 549 433 902 1253 1302 1192 1205 1116 1037
1239 963 667 507 573 583 581 520 424 411 520 604 576 536 572 516 269 331 234 240 169 110 133 208 235 152 172 283 272 273 169 224 276 276 296 368 1126 1284 1039 1100 1013 731
1200 899 752 549 532 416 430 387 345 370 464 503 436 420 444 391 361 347 266 262 259 40 4 152 224 185 177 213 133 66 49 107 143 90 132 220 851 960 1034 931 840 736
1347 1013 788 516 379 339 421 422 365 380 465 381 380 466 295 267 392 318 352 239 109 15 4 62 152 143 106 101 60 102 61 31 69 62 100 419 1080 907 877 751 1067 834
1173 1112 824 641 436 484 504 377 423 355 295 339 380 426 320 293 256 330 328 264 67 38 0 13 84 88 41 55 83 67 7 10 24 93 242 379 971 1052 836 821 566 834
1486 945 868 791 646 636 548 488 347 463 131 256 228 193 178 110 200 274 344 155 42 0 0 0 42 48 11 3 0 0 2 28 44 59 131 212 566 863 856 1007 974 1030
1805 915 884 741 685 698 620 430 451 284 196 182 201 61 45 145 159 308 312 105 2 0 0 0 34 7 0 0 0 0 0 4 18 17 33 70 162 315 288 345 406 468
1045 1258 709 629 563 607 602 520 435 265 134 223 25 22 89 152 114 272 121 15 0 0 0 0 0 0 0 0 0 8 11 8 24 59 50 45 63 140 222 245 198 139
1373 1242 535 528 566 583 564 517 356 149 43 47 4 16 32 127 145 99 28 1 0 0 0 0 0 0 0 1 8 8 8 12 42 63 76 77 72 129 133 182 209 227
779 718 646 771 618 581 497 499 310 114 57 13 11 6 6 50 60 29 12 0 0 0 0 0 0 0 0 0 0 5 13 38 45 60 57 68 84 123 141 135 152 123
580 484 508 569 389 523 476 503 423 140 86 16 9 5 8 24 38 58 26 17 0 0 0 0 0 0 12 92 1 11 21 32 39 24 46 52 49 57 72 76 83 89
348 544 609 237 279 320 385 412 402 231 53 14 7 13 32 18 8 16 57 26 18 18 3 1 18 252 0 0 0 12 36 8 46 67 43 59 60 74 68 51 67 111
387 396 298 382 640 204 249 268 322 218 47 12 29 25 48 26 7 0 14 9 3 30 63 180 291 0 0 0 0 0 115 225 87 50 60 48 81 82 64 67 80 102
124 123 45 99 121 19 293 311 190 118 36 7 10 4 2 19 72 92 133 63 21 39 74 234 38 0 0 0 0 0 0 98 135 77 67 79 70 63 54 34 23 36
21 48 35 40 51 53 58 46 139 366 50 15 39 93 92 140 168 190 215 198 120 471 188 0 0 0 0 0 0 0 0 53 62 140 72 43 51 71 56 85 64 71
40 22 63 24 18 43 73 37 40 110 88 116 197 303 298 241 260 256 272 220 469 245 74 0 0 0 0 0 0 0 0 0 38 285 200 100 15 47 81 82 161 383
3 5 4 3 31 25 8 15 57 143 314 401 384 314 117 78 112 187 217 264 124 146 63 0 0 0 0 0 0 0 0 0 79 484 335 205 143 241 391 592 821 957
4 0 1 8 20 26 21 42 111 164 173 145 114 77 109 218 252 277 254 214 142 139 6 0 0 0 0 0 0 0 0 32 412 518 323 213 114 282 773 955 973 964
7 1 2 1 12 2 0 32 109 136 269 421 328 153 125 67 67 93 151 159 98 85 18 0 0 0 0 0 14 2 0 325 877 524 408 500 779 563 744 330 317 428
0 2 0 0 0 0 0 0 4 18 53 81 102 120 62 28 18 36 48 54 66 82 89 50 23 14 10 3 3 36 32 164 632 436 461 473 501 772 776 419 41 578
4 6 6 7 5 1 3 4 0 8 8 8 14 5 0 1 24 31 32 22 38 54 49 37 25 28 10 4 23 37 24 32 246 208 308 522 333 413 634 482 175 249
4 4 3 1 0 0 1 0 1 0 0 10 0 0 0 14 29 47 10 12 36 40 44 35 50 51 41 36 6 0 0 1 98 113 223 173 167 65 66 46 116 0

ECMWFNIL_con_mucape_072.txt.gz
CAPE
1082 1005 896 723 770 953 684 676 720 951 1112 948 830 658 906 1141 730 903 818 753 846 627 631 828 797 746 744 828 484 624 1161 928 1213 1246 1392 1314 1383 1418 1444 1423 1140 1037
1111 1013 850 776 652 547 599 582 889 999 1336 948 871 941 853 686 586 719 530 437 366 578 502 607 718 680 592 580 653 813 814 1109 1339 960 1226 1350 1491 1508 1416 1470 1379 1390
1069 1016 712 647 460 390 482 579 1211 932 1059 874 802 856 869 659 850 670 541 320 409 426 484 743 732 697 575 698 691 918 1036 1359 740 481 643 1258 1259 1347 1409 1314 1382 1314
1059 879 686 670 494 448 674 1001 905 1134 949 1014 682 975 617 578 850 579 518 434 394 351 503 697 534 480 381 626 638 681 703 754 729 792 1218 1159 1337 1172 896 1406 1370 1138
1024 843 780 700 592 714 770 803 729 971 753 974 842 676 467 571 605 415 455 502 302 272 450 463 450 583 391 408 602 670 638 699 722 809 1001 1426 1161 1154 1154 1374 1250 1193
981 712 580 614 771 833 691 676 625 724 798 923 810 495 588 498 457 323 360 326 280 128 265 284 316 204 494 437 672 624 617 711 703 733 637 851 1047 1137 782 1082 1103 1094
742 633 713 660 718 704 648 545 619 591 814 756 543 672 604 419 322 281 217 256 158 58 122 246 221 335 491 366 459 579 608 437 416 419 396 530 917 900 663 854 906 800
941 802 706 590 712 638 531 756 573 650 662 519 629 682 588 458 263 309 314 274 96 14 80 149 160 284 294 240 286 402 253 301 284 253 330 616 908 644 933 740 896 756
1006 804 734 738 653 553 512 464 541 588 518 588 619 436 523 467 393 373 268 278 114 74 47 131 137 189 225 444 253 180 201 408 508 513 649 752 938 727 613 695 889 936
1150 679 756 644 653 633 550 423 462 453 468 419 491 346 366 449 458 289 329 259 108 39 70 61 155 130 111 92 34 45 100 176 321 464 566 681 948 721 473 672 768 904
836 756 584 553 637 668 523 553 575 534 386 367 473 384 270 327 293 370 311 137 96 8 17 44 111 38 58 62 111 36 81 174 162 244 442 567 629 715 800 842 590 847
578 619 597 636 709 682 593 441 454 438 377 343 195 179 142 318 196 272 196 64 0 0 0 73 68 17 0 0 0 21 161 56 449 277 289 364 429 282 372 605 511 647
505 523 451 707 616 543 477 365 348 252 263 159 111 307 219 339 248 342 228 20 0 1 0 2 4 0 30 26 0 31 6 96 146 288 285 312 413 334 375 378 391 458
396 496 428 679 611 569 489 412 265 166 160 77 164 122 118 199 198 138 137 2 13 1 0 11 37 19 0 31 28 22 70 123 112 248 172 120 366 338 353 501 404 345
336 326 302 257 334 499 535 217 94 162 109 117 112 83 158 192 103 28 8 5 0 2 0 6 0 0 0 0 13 100 219 104 126 72 142 201 152 295 304 377 368 343
368 388 404 332 394 434 462 232 241 187 71 50 32 58 211 201 154 65 95 6 0 7 60 0 0 0 0 0 0 0 34 86 69 199 67 82 136 178 94 207 194 75
276 229 372 551 372 356 370 184 87 43 34 34 68 169 178 96 101 49 104 35 37 36 0 0 0 0 0 0 0 0 0 34 380 218 248 85 228 73 208 106 288 77
326 216 173 231 306 387 352 215 64 42 58 71 98 106 190 349 317 250 298 231 0 0 0 0 0 0 0 0 0 0 0 31 29 109 420 93 76 134 118 126 65 151
306 186 0 144 151 132 85 120 242 93 53 86 166 300 385 323 410 475 374 114 1 0 0 0 0 0 0 0 0 0 0 0 41 193 198 243 108 88 140 222 146 176
270 43 90 118 104 91 72 56 109 91 123 156 203 260 285 269 254 352 146 0 0 0 0 0 0 0 0 0 0 0 0 0 55 202 327 464 350 225 362 184 131 22
108 100 90 94 68 67 35 27 43 49 61 56 52 48 66 143 210 165 11 0 0 0 0 0 0 0 0 0 0 0 0 0 13 522 403 345 342 360 195 111 111 141
43 40 24 34 54 67 51 24 28 18 9 3 10 20 16 8 13 58 16 0 0 0 0 0 0 0 0 0 0 0 0 68 350 658 558 327 301 307 146 121 51 54
6 16 10 16 26 30 25 36 54 69 56 25 19 11 1 0 26 40 39 33 59 53 0 0 0 0 0 0 0 0 0 76 379 596 519 416 209 126 106 103 19 20
6 7 8 7 5 5 2 2 2 6 27 36 32 22 7 6 18 22 7 24 45 42 34 0 0 0 0 0 0 0 0 53 164 226 338 296 200 132 56 67 0 63
15 8 6 6 3 1 2 2 2 4 10 4 1 5 13 16 11 4 3 9 9 12 15 16 0 0 0 0 0 0 35 34 64 116 129 218 188 104 81 0 0 0
3 1 1 1 2 1 1 4 8 0 10 4 3 1 0 0 0 0 4 6 11 14 8 0 3 10 9 18 28 30 27 34 41 81 97 85 74 70 94 0 0 0

ECMWFNIL_con_mucape_075.txt.gz
CAPE
763 929 1098 1088 1195 993 1124 976 805 662 504 483 507 423 421 395 360 397 403 464 386 322 355 538 462 495 590 675 740 874 741 909 1095 1032 973 1094 1095 930 795 644 708 804
1072 982 1141 1097 1118 977 946 827 666 523 557 546 567 527 479 451 443 395 393 370 357 397 310 306 458 507 568 580 612 656 748 948 1057 1048 1119 1078 1125 1062 994 745 743 772
1156 1047 1078 1061 1003 859 818 694 631 622 569 492 584 586 493 485 414 281 275 268 227 238 243 216 287 427 436 378 423 610 682 836 910 1005 1026 1074 1077 1110 1119 861 799 819
1108 1092 996 960 917 821 756 596 736 483 289 294 435 467 320 222 262 224 169 134 10 149 344 339 286 349 327 306 467 488 587 628 617 862 1059 1134 1157 1119 1075 992 940 801
1076 1058 955 813 805 759 637 455 830 475 323 340 271 253 234 184 146 190 19 0 9 232 256 225 260 330 261 314 453 571 550 378 468 582 864 1056 1113 982 939 991 907 836
1026 929 640 613 721 643 407 543 660 315 373 372 259 258 232 157 70 56 6 4 12 90 118 88 257 230 272 342 253 298 288 376 593 624 576 733 926 744 984 1059 827 840
834 835 548 568 614 313 501 674 469 295 253 301 254 222 227 162 40 33 1 0 0 26 62 129 47 227 238 263 282 307 307 330 411 618 665 620 764 871 1046 998 836 569
824 640 660 654 537 606 630 427 464 271 265 260 263 240 188 160 30 29 3 0 0 0 36 64 156 38 49 44 110 280 304 106 302 420 600 689 768 816 906 871 760 665
735 632 577 574 726 641 547 462 367 334 309 295 217 178 202 82 68 85 52 1 0 0 24 28 27 14 13 13 0 0 26 122 50 216 401 542 560 581 707 791 683 581
883 570 651 670 692 490 356 346 370 323 314 308 249 225 284 245 110 114 102 7 0 0 19 33 27 18 14 0 0 0 0 6 50 413 502 553 473 592 680 649 616 520
543 450 535 397 336 424 398 312 363 339 317 245 244 251 240 224 149 157 125 0 0 0 3 6 2 2 0 0 2 0 0 4 35 324 464 545 478 483 556 642 749 734
396 492 375 286 283 380 358 373 320 266 238 191 186 209 204 229 214 187 99 0 0 0 0 1 0 0 0 0 0 0 0 3 9 375 426 457 513 526 544 522 579 666
409 417 380 113 156 280 256 270 198 211 241 183 180 165 181 166 167 149 8 0 0 0 0 0 0 0 0 0 0 0 1 138 10 6 23 294 473 432 468 470 336 297
363 373 345 233 186 144 218 225 204 218 181 149 148 130 102 99 156 111 0 0 0 0 0 0 0 0 0 0 0 0 0 0 2 0 9 34 280 387 408 490 448 164
420 280 264 210 157 155 160 143 156 139 96 54 43 71 78 134 117 6 0 0 0 0 0 0 0 0 0 0 0 0 0 0 0 0 0 5 17 164 331 322 270 125
391 203 162 84 32 46 55 120 97 98 42 34 44 58 67 69 54 0 0 0 0 0 0 0 0 0 0 0 0 0 0 4 0 0 0 0 0 0 0 0 7 184
271 236 218 230 170 94 66 5 0 1 0 8 23 10 3 2 0 0 0 0 0 0 0 0 0 0 0 0 0 0 0 0 0 0 0 0 0 0 0 0 0 6
184 176 241 186 168 45 0 0 0 2 12 32 48 33 10 0 0 0 0 0 0 0 0 0 0 0 0 0 0 0 0 0 0 1 3 5 0 0 0 0 0 0
213 297 206 51 7 15 0 0 2 14 22 25 48 27 20 0 0 0 0 0 0 0 0 0 0 0 0 0 0 0 0 0 0 0 0 0 0 1 0 0 0 0
218 222 204 72 29 10 7 0 0 1 2 5 14 16 16 12 0 0 0 0 0 0 0 0 0 0 0 0 0 0 0 124 146 30 10 8 6 10 13 8 0 0
178 171 78 64 15 8 5 0 0 0 0 0 0 0 0 0 0 0 0 0 0 0 0 0 0 0 0 0 0 0 33 256 196 40 11 20 14 8 8 11 10 20
128 118 136 47 20 6 3 0 0 0 30 0 0 0 0 0 0 0 0 0 0 0 0 0 0 0 0 0 0 36 162 188 160 116 104 97 78 0 88 33 20 38
107 80 75 35 20 2 0 22 36 36 24 0 0 0 0 0 0 0 0 0 0 0 0 0 0 0 0 0 0 54 90 122 124 112 145 130 128 133 127 113 95 98
48 83 67 68 28 12 18 23 23 3 0 0 0 0 0 0 0 0 0 0 0 0 0 0 0 0 0 0 0 30 82 119 98 85 92 102 107 114 120 132 128 137
8 11 31 46 44 29 27 24 19 5 0 0 0 0 0 0 0 0 0 0 0 0 0 0 0 0 0 0 0 0 58 82 80 68 55 49 47 74 69 91 97 90
22 15 18 23 18 24 20 17 8 3 5 4 3 1 0 0 0 0 0 1 0 0 0 0 0 0 0 0 0 0 2 44 55 51 0 0 0 0 35 38 2 2

ECMWFNIL_con_mucape_078.txt.gz
CAPE
924 819 757 714 697 860 868 755 550 525 417 490 630 740 785 797 895 805 892 781 802 819 771 805 630 760 744 778 909 932 863 865 787 762 677 622 585 563 664 627 553 465
973 913 762 641 698 683 650 632 676 568 536 596 680 732 636 806 990 896 944 894 804 720 640 608 649 837 862 908 966 966 962 933 880 783 684 659 643 702 703 646 526 382
895 669 732 699 845 729 519 818 841 741 592 586 619 635 624 723 672 548 664 719 645 579 554 616 639 779 881 883 950 947 914 900 934 804 766 790 789 746 719 625 465 560
1034 792 699 677 858 825 671 887 729 626 579 451 564 565 578 528 555 551 534 466 446 418 401 458 513 608 723 781 840 843 750 838 958 871 861 961 971 830 735 603 579 694
916 843 782 738 853 840 632 825 542 512 579 505 507 490 581 542 464 507 447 441 331 338 404 412 426 474 536 624 683 720 719 828 954 958 994 965 1034 991 882 653 629 686
835 880 972 890 832 808 711 644 541 447 410 378 375 489 511 469 406 403 414 356 333 287 326 378 403 375 397 441 510 600 697 747 769 864 931 962 1022 1035 987 863 765 747
874 894 964 954 932 854 687 636 497 408 354 472 360 601 553 415 371 356 368 335 305 352 347 332 340 361 350 373 482 558 643 561 563 792 938 974 1024 1063 1010 905 889 803
885 881 916 959 903 796 667 500 341 26 276 360 429 380 437 408 264 179 211 285 308 319 321 300 321 317 319 410 506 496 457 479 578 624 867 894 894 820 863 898 860 858
881 916 924 857 737 611 597 434 342 203 169 194 301 280 230 135 135 136 132 244 251 230 240 313 291 294 322 353 350 333 416 538 613 635 614 662 713 698 941 958 829 762
801 805 854 830 588 483 506 433 357 13 0 208 226 224 170 104 103 109 146 207 228 237 213 205 255 235 257 290 338 382 390 405 546 607 664 648 688 742 957 964 837 619
648 726 806 659 482 449 414 357 107 56 150 275 264 238 183 102 81 8 38 146 159 186 207 241 213 0 74 147 292 321 0 0 178 528 654 698 725 774 884 878 775 531
641 692 712 554 500 326 324 190 4 214 214 283 266 211 156 130 114 62 1 93 139 152 165 22 0 0 0 0 0 0 261 342 394 511 578 630 676 652 724 778 608 430
670 714 648 575 462 367 211 48 5 236 95 336 160 205 147 142 143 72 4 67 133 152 147 30 0 0 0 0 0 0 232 390 505 573 611 588 573 674 694 667 481 492
698 771 643 531 516 340 230 208 222 46 266 134 206 199 158 151 167 78 5 43 86 123 33 0 0 0 0 0 0 0 148 357 398 483 605 532 528 659 579 391 317 322
667 582 544 500 475 246 130 139 141 64 104 73 205 194 149 156 119 62 4 0 53 82 24 0 0 0 0 0 0 0 0 319 215 338 469 559 489 394 229 0 69 0
529 516 439 438 352 224 194 193 80 46 58 66 156 145 151 169 104 57 5 0 68 76 66 0 0 0 0 0 2 88 184 237 198 320 476 548 514 506 439 353 252 100
432 414 342 320 231 162 103 52 10 81 118 137 102 73 127 144 103 42 0 0 3 65 0 0 0 0 0 0 0 30 0 0 177 277 382 425 456 441 407 291 246 159
307 347 307 172 77 47 48 23 31 62 76 57 0 64 142 120 48 0 0 0 0 0 0 0 0 0 0 0 0 0 0 0 128 232 282 341 356 316 266 244 218 194
192 202 132 46 61 69 10 0 40 0 0 0 17 84 90 98 34 0 0 0 0 0 0 0 0 0 0 0 0 0 36 76 86 111 204 230 245 223 205 171 139 82
125 81 78 33 32 16 8 0 0 4 0 23 60 68 82 66 11 0 0 0 0 0 0 0 0 0 0 0 0 0 0 0 5 89 43 50 88 141 108 17 0 0
110 57 21 28 15 4 7 4 12 1 0 54 68 69 46 6 41 42 11 16 0 15 48 46 37 48 49 0 0 0 0 0 0 0 0 0 0 0 0 0 0 0
71 42 47 22 15 9 5 0 0 19 41 13 45 9 0 0 0 44 57 57 24 62 64 59 52 46 44 95 0 34 0 18 0 0 0 0 0 0 0 0 38 56
158 96 37 24 20 11 12 14 15 26 38 45 0 0 0 7 12 0 53 56 58 44 6 43 58 50 41 106 74 38 10 36 0 23 34 11 16 10 0 0 0 0
87 61 39 23 20 12 14 24 38 45 7 0 44 58 61 54 51 8 5 24 55 47 0 0 6 45 50 55 115 87 40 25 41 30 5 9 9 80 90 92 80 75
58 54 33 28 22 10 23 33 23 0 16 24 67 51 71 62 61 41 25 15 9 4 0 0 0 0 0 0 41 51 0 63 57 20 40 60 94 114 126 124 99 75
15 26 49 3 5 15 28 26 0 6 32 5 41 63 58 46 33 8 0 0 0 0 0 0 0 0 0 0 0 0 0 0 0 0 0 42 77 78 80 85 78 62

ECMWFNIL_con_mucape_084.txt.gz
CAPE
902 678 662 481 467 536 627 708 698 682 631 530 507 488 486 774 866 656 653 701 763 737 777 800 771 783 818 721 646 708 733 742 689 530 542 570 555 502 488 515 477 450
677 590 307 379 441 516 581 628 689 714 697 573 568 520 584 740 811 701 617 604 632 636 615 732 801 817 805 765 860 839 781 664 646 630 627 583 557 501 515 483 435 423
356 641 608 368 364 392 433 558 676 751 707 617 577 522 519 708 775 691 624 622 541 508 601 723 756 817 880 934 922 860 822 785 749 675 616 610 526 506 479 433 411 402
560 505 502 522 526 420 453 586 668 734 740 644 492 533 589 659 724 704 619 592 574 634 581 677 834 899 936 922 925 899 913 898 757 649 605 552 526 485 480 478 473 437
412 557 719 651 514 455 506 562 711 884 862 748 563 487 594 620 714 738 624 574 579 646 604 663 876 888 906 911 867 885 874 710 597 627 594 587 614 564 475 472 474 511
427 507 576 679 636 558 595 589 604 721 823 705 582 543 625 702 707 727 657 611 577 723 562 674 721 748 713 819 741 674 658 655 672 692 709 696 684 543 470 468 521 556
441 457 496 637 697 773 853 816 736 759 774 705 570 547 651 718 672 661 719 564 633 461 518 583 765 902 742 733 706 703 711 677 721 794 768 750 648 515 565 600 645 631
426 533 376 364 443 646 747 682 673 706 740 694 561 556 574 595 624 668 755 692 533 422 615 688 816 797 740 768 765 778 799 800 871 852 803 749 601 654 680 734 718 665
449 442 429 521 640 702 696 709 627 635 704 634 537 606 581 574 671 676 723 602 418 436 516 627 629 574 695 800 836 844 868 874 810 727 744 732 706 786 831 862 834 718
527 628 589 566 675 660 641 654 651 651 702 622 570 656 697 684 616 673 589 334 331 463 550 450 417 456 558 680 745 773 742 724 679 668 739 766 774 814 849 862 868 769
502 623 681 622 636 656 667 656 661 676 692 652 667 731 745 609 584 554 328 425 479 541 514 377 314 313 344 403 509 527 456 501 566 623 642 642 712 788 825 866 885 853
462 538 610 632 578 592 706 674 666 704 780 797 743 759 650 556 468 336 318 470 465 418 349 300 315 275 103 291 315 273 302 412 505 467 471 540 684 787 782 829 841 784
282 312 366 463 471 476 458 520 663 665 737 817 819 726 676 522 442 309 321 436 490 390 316 272 272 256 245 266 235 247 333 368 351 355 444 492 662 672 648 678 748 738
45 208 248 309 399 452 433 516 658 725 738 736 742 610 549 498 383 266 362 444 448 348 306 291 278 257 260 223 232 278 286 246 291 373 442 465 508 577 576 682 708 713
104 97 191 264 313 328 370 452 625 706 768 772 685 529 450 399 198 294 358 342 266 256 285 311 282 250 221 206 241 250 234 247 267 305 374 435 524 537 591 658 636 518
68 91 101 142 256 265 331 409 562 678 752 720 654 551 456 251 120 128 199 162 126 149 216 239 225 187 174 178 0 0 0 153 0 122 283 427 505 570 589 547 384 344
11 51 88 108 254 188 252 356 477 616 692 672 488 364 253 122 136 118 121 21 61 128 181 204 182 174 0 0 0 0 0 0 0 211 322 427 507 519 537 313 0 0
1 5 34 65 50 191 216 360 496 549 554 297 220 175 52 73 89 0 0 20 119 147 183 166 150 0 0 0 0 0 0 239 300 355 434 510 451 472 244 0 0 0
0 2 6 22 57 144 278 327 423 401 260 120 150 46 52 85 50 0 0 92 116 112 111 40 0 0 0 0 0 0 216 320 392 493 553 371 354 248 80 0 0 0
0 0 0 9 28 59 180 253 296 430 268 76 75 53 85 67 34 0 0 88 94 79 65 53 0 0 0 0 0 0 185 236 339 452 479 376 286 105 0 0 0 0
0 0 12 24 10 50 133 168 254 337 222 123 60 30 53 87 97 12 35 86 88 77 62 43 2 0 0 7 0 90 129 208 380 473 460 377 276 101 0 0 0 0
0 0 0 35 20 20 26 83 181 163 169 138 33 32 64 90 45 72 49 77 79 70 48 26 0 0 42 56 70 90 133 250 433 470 455 404 310 224 122 152 49 0
2 0 0 5 4 21 21 117 181 97 112 78 64 83 66 19 111 120 26 54 75 60 56 34 6 8 0 28 36 59 123 244 303 350 354 394 335 232 159 0 0 0
3 3 1 0 5 4 3 54 150 99 96 62 68 71 59 55 0 111 50 51 69 79 51 35 42 19 42 36 0 61 119 194 234 243 261 280 281 70 0 18 0 0
1 7 1 0 0 3 18 3 9 65 86 79 48 44 26 4 9 10 47 70 100 54 17 37 0 0 0 0 28 33 72 92 165 179 216 222 256 0 0 0 35 0
0 0 6 5 0 1 5 3 0 7 17 40 42 48 57 1 0 37 63 40 61 60 58 16 54 60 58 55 10 0 26 4 114 124 155 123 88 0 0 0 0 0

ECMWFNIL_con_mucape_087.txt.gz
CAPE
720 634 619 686 747 985 1232 1244 1237 1273 1266 1239 1072 908 871 628 579 510 645 855 830 724 744 712 730 760 707 561 562 593 649 671 736 767 483 439 775 914 794 864 925 899
717 594 596 567 547 610 737 883 958 838 960 985 983 992 912 663 621 586 512 641 691 827 792 792 769 765 621 534 655 744 766 713 632 710 581 526 771 811 897 863 1055 1020
650 652 566 480 432 534 609 601 725 852 939 1013 937 914 714 639 626 616 600 507 725 839 808 818 783 746 677 603 623 720 828 802 743 711 566 564 775 703 815 835 1062 994
554 516 509 462 563 569 559 550 630 780 916 986 837 701 701 584 565 592 689 789 811 772 791 800 762 683 706 704 637 533 636 717 761 788 730 735 561 528 719 1188 944 972
380 488 473 389 385 441 512 532 584 615 609 561 668 755 746 551 532 580 666 776 798 776 744 761 716 655 647 666 592 615 651 758 777 757 748 615 580 534 807 707 781 934
407 393 412 376 395 543 569 613 635 640 492 543 736 676 828 624 530 568 668 772 841 777 716 627 609 623 630 622 622 512 541 590 652 696 674 837 672 616 625 811 1043 1069
515 503 484 368 466 563 494 604 628 619 602 605 580 648 757 648 542 570 645 757 800 772 721 661 635 636 666 711 598 634 631 601 355 403 582 484 503 496 564 895 992 1044
385 456 534 492 479 479 383 321 363 506 684 766 787 741 771 640 550 590 653 728 804 737 676 657 705 665 699 684 627 587 654 752 756 683 419 542 459 494 874 984 1187 1148
324 456 484 510 238 259 291 299 416 476 538 633 676 747 739 613 571 606 698 698 747 729 675 690 710 698 714 700 616 629 621 506 428 504 515 541 819 1037 900 671 694 613
233 272 468 504 279 381 417 448 522 582 558 604 627 699 698 636 549 610 662 695 670 701 640 611 607 656 746 691 663 628 504 427 411 440 614 852 1187 1153 1045 932 784 731
231 238 332 513 527 456 487 540 552 547 525 474 529 628 655 584 564 558 604 651 643 618 523 519 682 798 794 774 951 840 632 528 479 515 709 1207 1424 1414 1055 1139 1155 1103
262 263 231 372 485 573 608 591 585 534 467 428 489 629 654 577 576 586 603 639 541 583 584 557 571 637 748 1013 1148 1205 785 754 816 824 1101 1380 1278 1445 1349 1363 1291 1269
76 226 288 221 322 387 521 581 564 550 538 524 514 603 617 547 540 623 566 587 575 526 421 437 422 554 848 1071 1053 1029 1198 1272 1305 1069 926 1322 1294 1250 1229 1367 1397 1308
4 15 153 248 190 202 279 421 522 449 387 435 538 585 555 552 597 527 508 474 373 384 450 541 458 454 746 909 853 955 1008 1068 1087 1012 925 966 1026 1072 1195 1393 1372 1320
2 4 7 106 198 187 111 228 336 305 329 398 504 614 556 583 650 551 378 390 363 437 506 464 347 338 525 675 693 701 876 882 986 979 1022 796 683 876 871 752 924 823
1 2 3 4 46 134 115 70 196 262 271 358 438 543 551 636 602 447 354 296 369 432 411 327 272 278 255 233 263 501 648 676 922 1095 1006 900 646 672 463 615 712 704
1 1 1 2 14 69 110 136 161 78 249 198 260 454 478 658 534 547 425 269 339 448 409 325 253 252 215 198 185 208 468 734 915 987 994 940 762 537 606 632 645 603
1 1 1 4 33 65 76 150 160 169 146 1 113 237 294 559 486 322 335 261 265 330 253 259 270 224 170 151 170 173 222 653 793 763 719 635 321 562 597 590 486 405
1 2 3 3 2 4 27 30 119 41 0 0 0 187 221 465 347 432 306 142 245 146 189 203 197 171 140 123 90 90 105 266 443 474 442 404 406 578 581 442 310 194
1 2 2 3 3 0 1 21 17 36 2 0 112 150 209 339 353 282 216 39 0 70 46 159 163 140 106 70 43 0 0 56 162 143 297 416 326 532 474 222 0 0
2 2 1 1 0 0 0 2 14 5 5 32 55 130 218 236 162 159 88 116 52 90 126 152 109 14 0 43 21 72 125 218 303 347 393 349 390 436 94 0 0 0
2 1 1 1 0 0 0 2 11 27 4 80 147 188 213 132 87 96 28 26 69 110 126 101 88 44 15 43 75 122 194 277 339 402 334 376 292 174 0 0 0 0
2 1 1 1 1 1 1 11 19 37 22 34 58 220 164 68 69 34 18 54 103 103 108 93 84 0 42 45 90 124 172 188 289 371 410 305 219 27 0 0 0 0
1 2 0 0 0 1 1 0 12 24 14 27 8 15 54 54 46 34 28 32 46 90 104 103 65 61 51 65 86 115 143 210 394 325 212 224 163 0 0 0 0 0
0 2 3 7 1 1 1 14 9 6 2 3 23 21 75 36 41 40 61 87 128 128 84 88 60 67 78 84 102 122 150 211 322 355 321 238 176 0 0 0 0 26
0 1 1 1 3 1 1 1 4 4 0 0 16 40 75 61 52 32 77 29 169 46 89 68 74 79 77 69 94 114 149 177 184 14 0 7 121 0 0 0 35 63

ECMWFNIL_con_mucape_093.txt.gz
CAPE
1292 1366 1479 1429 1449 1387 1420 1586 1633 1210 1438 1146 965 1384 1850 1775 1960 1538 1682 1503 1497 1473 1283 1092 1249 698 628 1131 1381 1409 1100 993 1108 1206 1037 1163 1200 1403 1043 842 527 395
1018 1084 1212 1234 1251 1289 1365 1323 1244 1262 1104 1411 1216 1038 1414 1401 1254 1733 1686 1556 1581 1446 1487 1490 1019 830 802 1219 889 882 1002 1073 1171 1095 1002 939 1208 781 618 662 442 426
825 955 1081 1102 1133 1216 1248 1246 1236 1311 1471 1655 1707 1636 1174 1005 891 1104 1274 1350 1426 1264 1412 1209 901 962 1075 949 838 842 975 968 776 790 870 1000 1246 608 742 665 547 493
661 792 883 993 1112 1115 1168 1236 1140 1294 1251 1490 1464 1576 1340 1088 923 688 807 923 958 1388 1295 1255 900 902 1164 1267 829 848 899 852 809 812 883 1049 976 487 391 950 834 579
517 573 705 844 993 1097 1122 1148 1072 1038 1282 1277 1141 1699 1558 1270 1026 879 739 932 1540 1441 1447 885 1360 810 1044 1140 787 905 907 970 808 534 566 660 967 784 815 733 716 480
347 424 555 702 838 986 1135 1111 1027 933 1027 1282 1006 794 1468 1518 962 856 772 830 1337 982 700 556 828 1075 1043 973 939 864 856 878 880 463 320 462 702 890 667 559 526 451
241 344 460 612 740 766 1009 1170 1056 1054 1082 1435 1364 1310 949 913 809 738 636 662 921 1021 1295 1228 1112 806 1314 1275 1106 1097 855 717 614 393 362 607 827 585 636 356 488 465
154 294 400 522 646 750 764 892 1086 1015 1187 1404 1669 1694 1189 676 704 533 565 419 896 867 1392 1093 1145 1422 1121 755 728 1298 886 1012 770 356 607 483 471 438 473 607 437 489
136 267 331 356 450 737 886 974 1088 990 1043 1173 1387 1446 1321 857 705 814 702 574 673 1246 1176 1131 1137 756 726 823 781 675 670 542 579 439 442 396 293 494 587 428 464 653
22 48 93 130 190 295 493 788 1022 966 1042 1013 962 978 964 1085 890 578 470 683 503 644 982 1378 968 625 387 566 662 736 603 389 421 360 455 505 354 471 820 504 587 355
6 8 20 60 116 167 268 396 656 935 1063 1064 1160 1241 869 1041 982 640 537 524 555 844 728 602 743 692 555 822 673 700 645 426 732 467 582 676 657 921 781 774 615 580
3 4 8 24 49 124 230 286 345 554 834 919 958 1016 1117 1057 1052 900 578 584 703 694 572 530 600 716 604 543 468 964 1222 1022 580 499 547 368 810 586 556 550 747 798
3 6 7 7 38 96 209 392 488 465 582 800 755 750 836 927 607 654 449 627 765 708 644 733 655 660 657 607 670 674 704 1043 1141 632 610 753 493 551 391 424 828 679
4 7 5 11 19 55 97 189 350 542 578 714 733 733 776 738 568 503 592 845 1043 622 534 650 604 501 526 486 799 970 1261 1002 840 567 436 450 455 429 1071 837 725 1242
3 5 5 17 35 41 50 27 33 89 252 564 688 762 731 730 772 774 614 581 1018 566 478 651 488 473 458 587 845 652 755 1087 948 740 759 576 510 403 502 962 862 723
2 2 2 8 16 9 6 0 3 3 2 9 282 597 656 634 778 752 427 468 850 700 562 848 573 596 406 696 911 1116 1059 1168 910 864 840 717 509 449 909 913 833 1104
0 1 1 4 2 1 0 0 2 6 4 1 1 65 473 444 401 474 514 441 419 708 742 589 555 592 523 696 754 782 760 1244 960 771 772 685 503 385 492 453 502 328
1 1 3 2 2 0 0 0 3 3 2 1 63 19 4 226 556 519 289 418 243 348 604 415 444 638 603 693 718 551 723 1237 891 823 681 757 608 366 393 365 522 417
0 1 2 2 1 0 0 0 2 2 1 1 37 12 119 6 205 196 195 39 243 542 392 363 419 499 606 534 524 534 407 890 1350 820 719 613 488 364 203 393 521 443
0 2 4 2 1 0 1 2 1 1 0 1 29 105 83 3 148 163 143 114 135 291 313 328 421 453 434 414 548 391 228 260 722 782 692 484 177 165 161 235 438 435
0 2 3 3 3 1 3 3 3 2 1 2 3 35 2 2 2 1 21 9 14 172 227 280 268 277 316 332 431 403 279 270 511 629 738 261 483 351 238 327 553 332
1 2 2 3 5 4 2 3 3 2 2 1 3 2 17 66 67 8 34 28 6 1 1 3 149 228 264 282 238 244 210 262 285 403 231 604 533 286 307 384 349 401
4 1 2 3 5 3 3 3 5 4 3 3 2 2 2 2 2 1 54 50 22 1 1 89 33 215 254 220 206 170 188 266 410 267 333 269 192 236 109 160 234 266
3 4 2 4 4 4 3 5 4 5 2 3 2 2 2 2 1 1 4 6 74 78 71 137 167 220 174 190 205 140 161 129 147 104 103 86 148 102 101 160 199 146
1 3 5 4 4 2 4 3 4 3 4 2 1 1 2 0 0 2 1 0 19 75 81 96 175 144 138 156 88 96 78 138 81 77 74 113 89 78 84 124 157 158
1 0 2 6 5 3 2 2 1 2 2 2 2 2 2 2 2 3 1 0 3 6 27 87 100 61 101 95 69 54 88 91 124 148 139 127 96 96 116 108 120 135